GW0787 Weather Reports


time (UTC)temp
C
wind
direction
speed
KPH
gust
KPH
rain 1hr
cm
rain 24hr
cm
rain mn
cm
humidity
%
barometer
mb
20260506221617 23 140 9.7 24.1 0.00 0.00 0.00 40 1013.6
20260506220101 22 139 4.8 16.1 0.00 0.00 0.00 36 1013.7
20260506214600 22 53 4.8 14.5 0.00 0.00 0.00 37 1013.7
20260506213103 22 137 6.4 14.5 0.00 0.00 0.00 34 1013.7
20260506211558 23 153 6.4 19.3 0.00 0.00 0.00 33 1013.8
20260506204558 23 64 1.6 12.9 0.00 0.00 0.00 32 1013.5
20260506203120 23 29 4.8 19.3 0.00 0.00 0.00 33 1013.6
20260506201555 23 207 6.4 37.0 0.00 0.00 0.00 34 1013.6
20260506200058 22 220 1.6 27.4 0.00 0.00 0.00 33 1013.5
20260506194555 23 241 11.3 32.2 0.00 0.00 0.00 31 1013.5
20260506193103 22 213 4.8 14.5 0.00 0.00 0.00 32 1013.4
20260506191553 22 298 9.7 27.4 0.00 0.00 0.00 29 1013.6
20260506190053 22 247 8.0 20.9 0.00 0.00 0.00 31 1013.6
20260506184553 22 4 6.4 27.4 0.00 0.00 0.00 29 1013.5
20260506183053 22 231 11.3 24.1 0.00 0.00 0.00 32 1013.5
20260506181554 22 149 4.8 17.7 0.00 0.00 0.00 36 1013.5
20260506180050 22 56 6.4 12.9 0.00 0.00 0.00 39 1013.4
20260506174544 22 4 6.4 12.9 0.00 0.00 0.00 39 1013.2
20260506173045 21 192 6.4 16.1 0.00 0.00 0.00 45 1013.4
20260506171538 20 73 8.0 17.7 0.00 0.00 0.00 47 1013.2
20260506170043 20 123 12.9 24.1 0.00 0.00 0.00 50 1013.4
20260506164545 19 46 9.7 22.5 0.00 0.00 0.00 50 1013.3
20260506163029 18 47 9.7 20.9 0.00 0.00 0.00 54 1013.6
20260506161525 17 86 6.4 20.9 0.00 0.00 0.00 57 1013.8
20260506160021 17 81 12.9 24.1 0.00 0.00 0.00 57 1013.8
20260506154518 16 77 9.7 22.5 0.00 0.00 0.00 61 1014.0
20260506153013 14 90 3.2 8.0 0.00 0.00 0.00 72 1014.1
20260506151508 12 127 1.6 12.9 0.00 0.00 0.00 82 1014.2
20260506150006 10 183 0.0 4.8 0.00 0.00 0.00 90 1014.4
20260506144511 8 183 0.0 4.8 0.00 0.00 0.00 91 1014.6
20260506143004 7 120 1.6 6.4 0.00 0.00 0.00 90 1014.7
20260506141509 6 160 1.6 4.8 0.00 0.00 0.00 91 1014.4
20260506140002 6 174 1.6 4.8 0.00 0.00 0.00 91 1014.3
20260506134601 6 226 1.6 8.0 0.00 0.00 0.00 91 1014.5
20260506133115 6 159 0.0 3.2 0.00 0.00 0.00 91 1014.5
20260506131615 6 156 0.0 3.2 0.00 0.00 0.00 91 1014.5
20260506130057 6 156 0.0 3.2 0.00 0.00 0.00 90 1014.5
20260506124557 6 156 0.0 3.2 0.00 0.00 0.00 90 1014.3
20260506123054 6 156 0.0 0.0 0.00 0.00 0.00 90 1014.3
20260506121555 7 157 0.0 1.6 0.00 0.00 0.00 90 1014.2
20260506120059 7 157 0.0 0.0 0.00 0.00 0.00 90 1014.1
20260506114547 7 156 0.0 0.0 0.00 0.00 0.00 89 1014.2
20260506113045 7 156 0.0 3.2 0.00 0.00 0.00 90 1014.0
20260506111546 7 156 0.0 0.0 0.00 0.00 0.00 89 1014.0
20260506110052 7 156 0.0 0.0 0.00 0.00 0.00 89 1014.0
20260506104550 7 155 0.0 3.2 0.00 0.00 0.00 89 1013.7
20260506103044 7 155 0.0 4.8 0.00 0.00 0.00 88 1013.6
20260506101536 8 153 0.0 3.2 0.00 0.00 0.00 88 1013.6
20260506100033 8 150 0.0 3.2 0.00 0.00 0.00 88 1013.6
20260506094531 8 149 0.0 6.4 0.00 0.00 0.00 87 1013.4
20260506093028 8 174 0.0 1.6 0.00 0.00 0.00 86 1013.5
20260506091525 8 172 0.0 1.6 0.00 0.00 0.00 86 1013.4
20260506090023 9 173 0.0 0.0 0.00 0.00 0.00 85 1013.4
20260506084543 9 170 0.0 1.6 0.00 0.00 0.00 84 1013.4
20260506083019 9 171 0.0 1.6 0.00 0.00 0.00 84 1013.3
20260506081518 10 171 0.0 3.2 0.00 0.00 0.00 84 1013.3
20260506073009 10 209 0.0 3.2 0.00 0.00 0.00 81 1013.0
20260506071506 11 209 0.0 1.6 0.00 0.00 0.00 81 1012.8
20260506061503 12 247 0.0 3.2 0.00 0.00 0.00 77 1012.3
20260506050103 15 247 0.0 4.8 0.00 0.00 0.00 70 1011.9
20260506044559 15 314 0.0 0.0 0.00 0.00 0.00 68 1011.8
20260506043058 16 315 0.0 3.2 0.00 0.00 0.00 66 1011.6
20260506041607 16 309 0.0 4.8 0.00 0.00 0.00 63 1011.4
20260506040059 17 177 0.0 0.0 0.00 0.00 0.00 58 1011.1
20260506034558 19 178 1.6 4.8 0.00 0.00 0.00 52 1010.9
20260506033100 20 214 1.6 6.4 0.00 0.00 0.00 50 1010.7
20260506031556 21 132 1.6 6.4 0.00 0.00 0.00 45 1010.5
20260506030055 21 212 4.8 17.7 0.00 0.00 0.00 43 1010.4
20260506024556 21 222 0.0 8.0 0.00 0.00 0.00 45 1010.2
20260506023107 22 219 3.2 9.7 0.00 0.00 0.00 42 1010.1
20260506021612 23 211 3.2 12.9 0.00 0.00 0.00 37 1010.0
20260506020054 24 212 3.2 6.4 0.00 0.00 0.00 36 1009.9
20260506014553 25 255 1.6 9.7 0.00 0.00 0.00 36 1009.8
20260506013107 25 226 1.6 14.5 0.00 0.00 0.00 29 1009.9
20260506011612 25 21 1.6 16.1 0.00 0.00 0.00 28 1009.7
20260506010056 26 125 0.0 14.5 0.00 0.00 0.00 29 1009.6
20260506004547 27 127 4.8 11.3 0.00 0.00 0.00 27 1009.6
20260506003045 28 214 3.2 11.3 0.00 0.00 0.00 26 1009.6
20260506001547 27 161 3.2 8.0 0.00 0.00 0.00 28 1009.6
20260506000045 27 37 3.2 11.3 0.00 0.00 0.00 27 1009.6
20260505234541 26 85 3.2 16.1 0.00 0.00 0.00 27 1009.7
20260505233039 26 25 6.4 17.7 0.00 0.00 0.00 26 1009.8
20260505231549 27 218 8.0 16.1 0.00 0.00 0.00 26 1009.9
20260505230036 27 187 0.0 11.3 0.00 0.00 0.00 26 1009.8
20260505224536 27 326 6.4 19.3 0.00 0.00 0.00 25 1010.0
20260505223035 28 162 6.4 16.1 0.00 0.00 0.00 26 1009.9